NOAA NWS Hourly Roundups by Site

Regional Weather Roundup for Seattle, WA

To Select Another Site Choose from List

Select Site:  

000
ASUS46 KSEW 010220
RWRWA

WASHINGTON REGIONAL WEATHER ROUNDUP
NATIONAL WEATHER SERVICE SEATTLE WA
700 PM PDT SUN MAY 31 2020

NOTE:"FAIR" INDICATES FEW OR NO CLOUDS BELOW 12,000 FEET WITH NO
SIGNIFICANT WEATHER AND/OR OBSTRUCTIONS TO VISIBILITY.

WAZ507-509-555>559-010300-
SEATTLE, TACOMA, EVERETT, AND VICINITY

CITY           SKY/WX    TMP DP  RH WIND       PRES   REMARKS
EVERETT        PTSUNNY   54  46  74 N8        30.13S
BOEING FIELD   PTSUNNY   59  48  67 NW7       30.11R
RENTON         CLOUDY    60  46  59 N5        30.10S
SEATAC AIRPORT PTSUNNY   60  46  59 W5        30.11S
JBLM-MCCHORD   MOSUNNY   60  39  45 SW6       30.11S
PUYALLUP       CLOUDY    59  43  55 SW5       30.12S
BREMERTON      CLOUDY    55  49  80 NE10      30.12R
JBLM-FT LEWIS  MOSUNNY   61  46  57 SW8       30.10S
TACOMA NARROWS PTSUNNY   57  41  55 S6        30.11S
$$

WAZ001-503-506-510-514-515-010300-
NORTH INTERIOR

CITY           SKY/WX    TMP DP  RH WIND       PRES   REMARKS
BELLINGHAM     MOSUNNY   59  42  53 S14       30.10F
FRIDAY HARBOR  MOSUNNY   58  43  57 SW9       30.11R
PORT ANGELES   CLOUDY    54  44  69 W9        30.13S
EDIZ HOOK      CLOUDY   N/A N/A N/A W15       30.14S
PORT TOWNSEND  CLOUDY    55  48  76 CALM      30.13S
NAS WHIDBEY    PTSUNNY   56  42  59 SW9       30.16S
ARLINGTON      CLOUDY    56  43  61 N5        30.13F
BURLINGTON     CLOUDY    57  45  62 S8        30.13S
$$

WAZ020-022-039-040-504-511-512-010300-
SOUTHWEST INTERIOR

CITY           SKY/WX    TMP DP  RH WIND       PRES   REMARKS
SHELTON        MOSUNNY   60  42  51 W14       30.08S
OLYMPIA        PTSUNNY   60  42  51 W5        30.11S
CHEHALIS       CLOUDY    61  45  55 CALM      30.11F
KELSO          CLOUDY    61  44  53 N7        30.11S
VANCOUVER      MOSUNNY   63  39  41 N8        30.08F
SCAPPOOSE, OR  CLOUDY    61  43  51 NW5       30.08F
PORTLAND, OR   PTSUNNY   63  41  44 NW7       30.08F
$$

WAZ021-516-517-010300-
WASHINGTON COAST

CITY           SKY/WX    TMP DP  RH WIND       PRES   REMARKS
FORKS          CLOUDY    55  45  68 W8        30.14F
HOQUIAM        SUNNY     56  43  61 W12       30.14S
ASTORIA, OR    SUNNY     56  44  64 NW12      30.13S
$$

WAZ019-023-024-040-567>569-010300-
CASCADE MOUNTAINS AND COLUMBIA GORGE

CITY           SKY/WX    TMP DP  RH WIND       PRES   REMARKS
STAMPEDE PASS  NOT AVBL
TROUTDALE, OR  MOSUNNY   63  41  44 NW7       30.07F
HOOD RIVER, OR PTCLDY    61  39  44 W5        30.04F
THE DALLES, OR PTSUNNY   64  39  39 W17G28    30.00F
$$

WAZ026-027-041>044-520-521-010300-
EAST SLOPES

CITY           SKY/WX    TMP DP  RH WIND       PRES   REMARKS
OMAK           SUNNY     70  43  37 SE6       29.92R
WENATCHEE      SUNNY     65  34  31 NW23      29.96R
ELLENSBURG     MOSUNNY   57  36  45 NW24G31   30.01S
YAKIMA         NOT AVBL
SUNNYSIDE ARPT   N/A     72  35  25 CALM      29.94
YAKIMA TC      NOT AVBL
$$

WAZ028-034-035-010300-
COLUMBIA BASIN

CITY           SKY/WX    TMP DP  RH WIND       PRES   REMARKS
EPHRATA        MOSUNNY   69  38  32 SW12      29.93S
MOSES LAKE     MOSUNNY   72  34  24 SW9       29.94S
PASCO          MOSUNNY   74  37  26 SW12      29.94F
RICHLAND ARPT  MOCLDY    73  36  26 MISG      29.93
HERMISTON, OR  PTSUNNY   69  37  30 SW10      29.95S
$$

WAZ036>038-010300-
NORTHEAST WASHINGTON

CITY           SKY/WX    TMP DP  RH WIND       PRES   REMARKS
SPOKANE GEIGER PTSUNNY   63  39  41 SW15      29.98S
SPOKANE FELTS  MOSUNNY   65  39  38 SW10      29.98S
FAIRCHILD AFB  SUNNY     62  39  42 SW13      29.99R
COEURDALENE,ID MOSUNNY   59  46  62 SW8       30.00R
DEER PARK      CLOUDY    61  44  53 NW7       29.99R
$$

WAZ029>033-010300-
SOUTHEAST WASHINGTON

CITY           SKY/WX    TMP DP  RH WIND       PRES   REMARKS
PULLMAN        MOSUNNY   60  41  49 W12G21    30.02R
LEWISTON, ID   MOSUNNY   69  47  45 NW8       29.97R
WALLA WALLA    MOSUNNY   67  44  43 W6        29.97F
PENDLETON, OR  PTSUNNY   67  37  33 NW10      29.98S
$$


 

View Past Reports for Seattle, WA.

Products Courtesy of NOAA-NWS
NWS Information Parsing Script by Ken True at Saratoga Weather - Script by SE Lincoln Weather.